Location: Geçitköy
(36.7327°N, 29.8010°E)
Time: 19:51:12
(UTC+00:00)

SL-16 R/B - Pass Details

Date: 12 January 2026
Orbit: 842 x 846 km, 71.0° (Epoch: 11 February)

Event Time Altitude Azimuth Distance (km) Brightness Sun altitude
Rises 16:02:46 0° 240° (WSW) 3,391 7.2 -11.5°
Reaches altitude 10° 16:05:49 10° 256° (WSW) 2,459 6.2 -12.1°
Maximum altitude 16:09:59 21° 304° (NW) 1,819 4.4 -12.8°
Drops below altitude 10° 16:14:10 10° 352° (N) 2,467 4.5 -13.6°
Sets 16:17:15 0° 8° (N) 3,404 5.1 -14.2°
